Weather History for KOXI - July, 2013

Change the Weather History Date:

Friday, July 5, 2013

  Actual Average (KVPZ) Record (KVPZ)
Temperature  
Mean Temperature 70 °F 73 °F  
Max Temperature 87 °F 83 °F 100 °F (2012)
Min Temperature 58 °F 63 °F 49 °F (2001)
Degree Days  
Heating Degree Days 0 0  
Month to date heating degree days 0  
Since 1 June heating degree days 41  
Since 1 July heating degree days 0  
Cooling Degree Days 4 8  
Month to date cooling degree days 40  
Year to date cooling degree days 251  
Since 1 June cooling degree days 204  
Growing Degree Days 20 (Base 50)    
Moisture  
Dew Point 66 °F    
Average Humidity 86    
Maximum Humidity 100    
Minimum Humidity 64    
Precipitation  
Precipitation 0.00 in 0.12 in 1.75 in (2003)
Month to date precipitation 0.56  
Year to date precipitation 17.45  
Sea Level Pressure  
Sea Level Pressure 30.09 in    
Wind  
Wind Speed 2 mph (South)    
Max Wind Speed 10 mph    
Max Gust Speed -    
Visibility 7 miles    
Events      
T = Trace of Precipitation, MM = Missing Value Source: NWS Daily Summary

Daily Weather History Graph

Daily Weather History Graph

Search for Another Location

Airport or City:

Trip Planner

Search our weather history database for the weather conditions in past years. The results will help you decide how hot, cold, wet, or windy it might be!

Date:

Astronomy

Jul. 05, 2013 Rise Set
Actual Time 5:19 AM CDT 8:22 PM CDT
Civil Twilight 4:46 AM CDT 8:56 PM CDT
Nautical Twilight 4:03 AM CDT 9:38 PM CDT
Astronomical Twilight 3:12 AM CDT 10:29 PM CDT
Moon 3:19 AM CDT (7/5) 6:16 PM CDT (7/5)
Length of Visible Light 16h 10m
Length of Day
15h 03m
Waning Crescent, 6% of the Moon is Illuminated
Jul 5
Waning Crescent
Jul 8
New
Jul 15
First Quarter
Jul 22
Full
Jul 29
Last Quarter

Hourly Weather History & Observations

Time (CDT) Temp. Heat Index Dew Point Humidity Pressure Visibility Wind Dir Wind Speed Gust Speed Precip Events Conditions
12:15 AM 62.6 °F - 62.6 °F 100% 30.09 in 2.5 mi Calm Calm - N/A   Clear
12:35 AM 61.3 °F - 61.5 °F 100% 30.08 in 0.2 mi Calm Calm - N/A   Unknown
12:55 AM 61.2 °F - 61.3 °F 100% 30.08 in 0.5 mi Calm Calm - N/A   Mostly Cloudy
1:15 AM 61.7 °F - 61.9 °F 100% 30.09 in 3.0 mi Calm Calm - N/A   Overcast
1:35 AM 61.9 °F - 62.1 °F 100% 30.09 in 4.0 mi SE 4.6 mph - N/A   Scattered Clouds
1:55 AM - - - N/A% 30.08 in 2.0 mi Calm Calm - N/A   Scattered Clouds
2:15 AM 61.3 °F - 61.5 °F 100% 30.07 in 1.5 mi Calm Calm - N/A   Unknown
2:35 AM 61.5 °F - 61.5 °F 100% 30.07 in 2.0 mi Calm Calm - N/A   Clear
2:55 AM 61.2 °F - 61.3 °F 100% 30.08 in 2.5 mi Calm Calm - N/A   Clear
3:15 AM 61.0 °F - 61.2 °F 100% 30.08 in 0.5 mi Calm Calm - N/A   Mostly Cloudy
3:35 AM 60.8 °F - 60.8 °F 100% 30.08 in 1.2 mi Calm Calm - N/A   Scattered Clouds
3:55 AM 60.1 °F - 60.3 °F 100% 30.08 in 3.0 mi Calm Calm - N/A   Clear
4:15 AM 60.1 °F - 60.1 °F 100% 30.08 in 2.0 mi Calm Calm - N/A   Scattered Clouds
4:35 AM 59.9 °F - 60.1 °F 100% 30.08 in 1.8 mi Calm Calm - N/A   Unknown
4:55 AM - - - N/A% 30.08 in 0.8 mi Calm Calm - N/A   Unknown
5:15 AM 59.0 °F - 59.2 °F 100% 30.08 in 1.0 mi NNW 8.1 mph - N/A   Unknown
5:35 AM 58.8 °F - 59.0 °F 100% 30.09 in 1.5 mi Calm Calm - N/A   Unknown
5:55 AM 58.8 °F - 59.0 °F 100% 30.09 in 1.2 mi Calm Calm - N/A   Unknown
6:15 AM 59.4 °F - 59.4 °F 100% 30.09 in 1.2 mi Calm Calm - N/A   Unknown
6:35 AM 60.3 °F - 60.3 °F 100% 30.09 in 1.8 mi Calm Calm - N/A   Unknown
6:55 AM 61.2 °F - 61.2 °F 100% 30.09 in 2.5 mi Calm Calm - N/A   Scattered Clouds
7:15 AM 61.3 °F - 61.5 °F 100% 30.10 in 2.0 mi Calm Calm - N/A   Scattered Clouds
7:35 AM 62.2 °F - 62.4 °F 100% 30.10 in 2.0 mi Calm Calm - N/A   Clear
7:55 AM 63.0 °F - 63.1 °F 100% 30.11 in 2.5 mi Calm Calm - N/A   Clear
8:15 AM 64.0 °F - 64.2 °F 100% 30.12 in 2.0 mi Calm Calm - N/A   Clear
8:35 AM 65.3 °F - 65.7 °F 100% 30.12 in 2.5 mi Calm Calm - N/A   Scattered Clouds
8:55 AM 66.4 °F - 66.6 °F 100% 30.13 in 3.0 mi Calm Calm - N/A   Scattered Clouds
9:15 AM 67.3 °F - 67.3 °F 100% 30.13 in 3.0 mi Calm Calm - N/A   Clear
9:35 AM 69.4 °F - 67.8 °F 95% 30.13 in 5.0 mi Calm Calm - N/A   Clear
9:55 AM 71.2 °F - 66.6 °F 85% 30.13 in 10.0 mi Calm Calm - N/A   Clear
10:15 AM 73.0 °F - 66.0 °F 79% 30.12 in 10.0 mi Calm Calm - N/A   Clear
10:35 AM 74.3 °F - 67.5 °F 79% 30.12 in 10.0 mi Calm Calm - N/A   Clear
10:55 AM 75.0 °F - 67.1 °F 76% 30.12 in 10.0 mi NE 3.5 mph - N/A   Clear
11:15 AM 75.6 °F - 66.4 °F 73% 30.12 in 10.0 mi Calm Calm - N/A   Scattered Clouds
11:35 AM 76.3 °F - 66.6 °F 72% 30.11 in 10.0 mi Calm Calm - N/A   Scattered Clouds
11:55 AM 77.0 °F - 67.5 °F 72% 30.12 in 10.0 mi Calm Calm - N/A   Scattered Clouds
12:15 PM 77.4 °F - 67.3 °F 71% 30.12 in 10.0 mi Calm Calm - N/A   Scattered Clouds
12:35 PM 76.8 °F - 68.2 °F 75% 30.11 in 10.0 mi Calm Calm - N/A   Scattered Clouds
12:55 PM 76.8 °F - 68.2 °F 75% 30.10 in 10.0 mi South 3.5 mph - N/A   Mostly Cloudy
1:15 PM 78.4 °F - 68.2 °F 71% 30.10 in 10.0 mi South 6.9 mph - N/A   Mostly Cloudy
1:35 PM 79.0 °F - 69.6 °F 73% 30.10 in 10.0 mi South 5.8 mph - N/A   Scattered Clouds
1:55 PM 79.2 °F - 68.7 °F 70% 30.10 in 10.0 mi South 5.8 mph - N/A   Scattered Clouds
2:15 PM 79.9 °F - 67.5 °F 66% 30.10 in 10.0 mi South 6.9 mph - N/A   Scattered Clouds
2:35 PM 80.2 °F 82.7 °F 67.6 °F 65% 30.09 in 10.0 mi SE 4.6 mph - N/A   Scattered Clouds
2:55 PM 80.2 °F 82.8 °F 67.8 °F 66% 30.08 in 10.0 mi SSW 4.6 mph - N/A   Scattered Clouds
3:15 PM 80.6 °F 83.1 °F 67.5 °F 64% 30.08 in 10.0 mi SSE 6.9 mph - N/A   Scattered Clouds
3:35 PM 80.8 °F 83.5 °F 67.8 °F 65% 30.07 in 10.0 mi SSW 6.9 mph - N/A   Scattered Clouds
3:55 PM 81.1 °F 83.9 °F 68.0 °F 64% 30.07 in 10.0 mi South 5.8 mph - N/A   Scattered Clouds
4:15 PM 80.6 °F 83.2 °F 67.8 °F 65% 30.07 in 10.0 mi South 8.1 mph - N/A   Scattered Clouds
4:35 PM 80.4 °F 82.8 °F 67.1 °F 64% 30.07 in 10.0 mi SSW 9.2 mph - N/A   Clear
4:55 PM 80.6 °F 83.2 °F 67.8 °F 65% 30.06 in 10.0 mi South 9.2 mph - N/A   Scattered Clouds
5:15 PM 79.9 °F - 67.1 °F 65% 30.05 in 10.0 mi South 9.2 mph - N/A   Clear
5:35 PM 80.8 °F 83.3 °F 67.5 °F 64% 30.04 in 10.0 mi South 10.4 mph - N/A   Scattered Clouds
5:55 PM 80.4 °F 82.8 °F 67.1 °F 64% 30.04 in 10.0 mi SSW 10.4 mph - N/A   Scattered Clouds
6:15 PM 80.1 °F 82.3 °F 66.9 °F 64% 30.04 in 10.0 mi SSW 5.8 mph - N/A   Clear
6:35 PM 80.1 °F 82.4 °F 67.5 °F 65% 30.05 in 10.0 mi South 8.1 mph - N/A   Scattered Clouds
6:55 PM 79.5 °F - 67.5 °F 66% 30.05 in 10.0 mi SSW 4.6 mph - N/A   Scattered Clouds
7:15 PM 78.8 °F - 68.0 °F 69% 30.05 in 10.0 mi SW 4.6 mph - N/A   Scattered Clouds
7:35 PM 78.3 °F - 67.6 °F 70% 30.05 in 10.0 mi SSW 4.6 mph - N/A   Clear
7:55 PM 77.2 °F - 68.4 °F 74% 30.05 in 10.0 mi Calm Calm - N/A   Clear
8:15 PM 75.7 °F - 70.0 °F 82% 30.05 in 10.0 mi Calm Calm - N/A   Clear
8:35 PM 74.5 °F - 70.5 °F 87% 30.05 in 10.0 mi Calm Calm - N/A   Clear
8:55 PM 73.4 °F - 70.7 °F 91% 30.05 in 10.0 mi Calm Calm - N/A   Clear
9:15 PM 72.3 °F - 70.3 °F 93% 30.06 in 10.0 mi Calm Calm - N/A   Clear
9:35 PM 71.2 °F - 70.2 °F 96% 30.07 in 10.0 mi SSE 3.5 mph - N/A   Clear
9:55 PM 70.2 °F - 69.3 °F 97% 30.08 in 10.0 mi SE 3.5 mph - N/A   Clear
10:15 PM 69.6 °F - 68.9 °F 98% 30.08 in 10.0 mi Calm Calm - N/A   Clear
10:35 PM 69.8 °F - 68.9 °F 97% 30.08 in 10.0 mi Calm Calm - N/A   Clear
10:55 PM 69.3 °F - 68.7 °F 98% 30.09 in 10.0 mi Calm Calm - N/A   Clear
11:15 PM 68.7 °F - 68.4 °F 99% 30.09 in 10.0 mi Calm Calm - N/A   Clear
11:35 PM 68.7 °F - 68.4 °F 99% 30.09 in 7.0 mi SE 3.5 mph - N/A   Clear
11:55 PM 68.9 °F - 68.4 °F 98% 30.09 in 10.0 mi South 5.8 mph - N/A   Clear